When you browse on this site, cookies collect data to enhance your experience and personalize the content and advertising you see.
Visit our Privacy Policy to learn more. By continuing to use the site, you agree to this use of cookies and data.
  • In Österreich
  • Länderverzeichnis
  • Für 7 Tage
  • Wassertemperatur
  • Wetterkarte
  • News
  • Widgets
  • user-avatar
    Anmelden

    Stündliche Wetter Salyan

    Heute, 21 Oktober, Montag

    Zeit Temperatur Niederschläge Wind Luftdruck Luftfeuchtigkeit
    00:00 +18°C° 0 mm 3 m/S 768 mmHg 69%
    01:00 +17°C° 0 mm 3 m/S 768 mmHg 69%
    02:00 +17°C° 0 mm 3 m/S 768 mmHg 70%
    03:00 +16°C° 0 mm 2 m/S 767 mmHg 73%
    04:00 +16°C° 0 mm 2 m/S 768 mmHg 76%
    05:00 +15°C° 0 mm 2 m/S 768 mmHg 79%
    06:00 +15°C° 0 mm 1 m/S 768 mmHg 82%
    07:00 +16°C° 0 mm 1 m/S 768 mmHg 73%
    08:00 +18°C° 0 mm 2 m/S 769 mmHg 63%
    09:00 +20°C° 0 mm 2 m/S 769 mmHg 54%
    10:00 +21°C° 0 mm 2 m/S 769 mmHg 47%
    11:00 +22°C° 0 mm 3 m/S 769 mmHg 40%
    12:00 +25°C° 0 mm 3 m/S 768 mmHg 33%
    13:00 +23°C° 0 mm 4 m/S 768 mmHg 35%
    14:00 +23°C° 0 mm 5 m/S 768 mmHg 37%
    15:00 +23°C° 0 mm 5 m/S 767 mmHg 39%
    16:00 +22°C° 0 mm 5 m/S 768 mmHg 47%
    17:00 +20°C° 0 mm 4 m/S 768 mmHg 54%
    18:00 +19°C° 0 mm 3 m/S 768 mmHg 61%
    19:00 +19°C° 0 mm 3 m/S 768 mmHg 63%
    20:00 +18°C° 0 mm 3 m/S 768 mmHg 65%
    21:00 +18°C° 0 mm 3 m/S 768 mmHg 67%
    22:00 +17°C° 0 mm 3 m/S 768 mmHg 69%
    23:00 +17°C° 0 mm 3 m/S 768 mmHg 70%

    Morgen, 22 Oktober, Dienstag

    Zeit Temperatur Niederschläge Wind Luftdruck Luftfeuchtigkeit
    00:00 +17°C° 0 mm 3 m/S 768 mmHg 71%
    01:00 +17°C° 0 mm 3 m/S 767 mmHg 72%
    02:00 +16°C° 0 mm 3 m/S 767 mmHg 74%
    03:00 +16°C° 0 mm 3 m/S 767 mmHg 75%
    04:00 +16°C° 0 mm 2 m/S 767 mmHg 75%
    05:00 +15°C° 0 mm 2 m/S 767 mmHg 76%
    06:00 +15°C° 0 mm 2 m/S 767 mmHg 76%
    07:00 +17°C° 0 mm 2 m/S 767 mmHg 69%
    08:00 +18°C° 0 mm 2 m/S 767 mmHg 62%
    09:00 +20°C° 0 mm 2 m/S 767 mmHg 54%
    10:00 +21°C° 0 mm 2 m/S 767 mmHg 50%
    11:00 +22°C° 0 mm 3 m/S 767 mmHg 46%
    12:00 +24°C° 0 mm 3 m/S 767 mmHg 42%
    13:00 +22°C° 0 mm 3 m/S 766 mmHg 43%
    14:00 +22°C° 0 mm 4 m/S 766 mmHg 44%
    15:00 +22°C° 0 mm 4 m/S 766 mmHg 46%
    16:00 +21°C° 0 mm 4 m/S 766 mmHg 51%
    17:00 +20°C° 0 mm 3 m/S 766 mmHg 55%
    18:00 +19°C° 0 mm 3 m/S 767 mmHg 60%
    19:00 +19°C° 0 mm 2 m/S 767 mmHg 62%
    20:00 +18°C° 0 mm 2 m/S 767 mmHg 64%
    21:00 +19°C° 0 mm 1 m/S 767 mmHg 66%
    22:00 +19°C° 0 mm 1 m/S 767 mmHg 66%
    23:00 +18°C° 0 mm 2 m/S 767 mmHg 65%

    übermorgen, 23 Oktober, Mittwoch

    Zeit Temperatur Niederschläge Wind Luftdruck Luftfeuchtigkeit
    00:00 +18°C° 0 mm 2 m/S 767 mmHg 65%
    01:00 +18°C° 0.1 mm 2 m/S 766 mmHg 67%
    02:00 +18°C° 0.1 mm 2 m/S 766 mmHg 69%
    03:00 +17°C° 0.1 mm 2 m/S 766 mmHg 71%
    04:00 +17°C° 0.1 mm 2 m/S 766 mmHg 74%
    05:00 +18°C° 0.1 mm 1 m/S 767 mmHg 77%
    06:00 +18°C° 0.1 mm 1 m/S 767 mmHg 79%
    07:00 +18°C° 0.1 mm 1 m/S 767 mmHg 79%
    08:00 +18°C° 0.1 mm 1 m/S 767 mmHg 79%
    09:00 +18°C° 0.1 mm 1 m/S 767 mmHg 79%
    10:00 +18°C° 0 mm 1 m/S 767 mmHg 76%
    11:00 +18°C° 0 mm 1 m/S 767 mmHg 74%
    12:00 +19°C° 0 mm 1 m/S 767 mmHg 71%
    13:00 +19°C° 0 mm 1 m/S 767 mmHg 68%
    14:00 +18°C° 0 mm 2 m/S 767 mmHg 65%
    15:00 +19°C° 0 mm 2 m/S 766 mmHg 62%
    16:00 +18°C° 0 mm 2 m/S 767 mmHg 65%
    17:00 +17°C° 0 mm 2 m/S 767 mmHg 68%
    18:00 +17°C° 0 mm 2 m/S 767 mmHg 71%
    19:00 +16°C° 0 mm 2 m/S 767 mmHg 73%
    20:00 +16°C° 0 mm 2 m/S 767 mmHg 75%
    21:00 +15°C° 0 mm 1 m/S 767 mmHg 78%
    22:00 +15°C° 0 mm 1 m/S 767 mmHg 79%
    23:00 +15°C° 0 mm 1 m/S 767 mmHg 80%

    24 Oktober, Donnerstag

    Zeit Temperatur Niederschläge Wind Luftdruck Luftfeuchtigkeit
    00:00 +15°C° 0 mm 1 m/S 767 mmHg 81%
    01:00 +15°C° 0 mm 2 m/S 767 mmHg 81%
    02:00 +15°C° 0 mm 2 m/S 767 mmHg 82%
    03:00 +15°C° 0 mm 2 m/S 766 mmHg 83%
    04:00 +14°C° 0 mm 1 m/S 767 mmHg 84%
    05:00 +14°C° 0 mm 1 m/S 767 mmHg 84%
    06:00 +14°C° 0 mm 1 m/S 767 mmHg 85%
    07:00 +16°C° 0 mm 1 m/S 767 mmHg 78%
    08:00 +18°C° 0 mm 1 m/S 767 mmHg 70%
    09:00 +20°C° 0 mm 1 m/S 767 mmHg 63%
    10:00 +21°C° 0 mm 1 m/S 767 mmHg 60%
    11:00 +21°C° 0 mm 1 m/S 767 mmHg 58%
    12:00 +22°C° 0 mm 1 m/S 766 mmHg 55%
    13:00 +21°C° 0 mm 2 m/S 766 mmHg 55%
    14:00 +21°C° 0 mm 3 m/S 766 mmHg 55%
    15:00 +22°C° 0 mm 4 m/S 766 mmHg 56%
    16:00 +20°C° 0 mm 3 m/S 766 mmHg 60%
    17:00 +19°C° 0 mm 3 m/S 766 mmHg 65%
    18:00 +18°C° 0 mm 3 m/S 766 mmHg 70%
    19:00 +18°C° 0 mm 2 m/S 766 mmHg 71%
    20:00 +18°C° 0 mm 2 m/S 766 mmHg 73%
    21:00 +18°C° 0 mm 2 m/S 766 mmHg 74%
    22:00 +17°C° 0 mm 2 m/S 766 mmHg 76%
    23:00 +18°C° 0 mm 1 m/S 766 mmHg 77%

    25 Oktober, Freitag

    Zeit Temperatur Niederschläge Wind Luftdruck Luftfeuchtigkeit
    00:00 +18°C° 0 mm 1 m/S 766 mmHg 79%
    01:00 +18°C° 0 mm 1 m/S 765 mmHg 79%
    02:00 +18°C° 0 mm 1 m/S 765 mmHg 78%
    03:00 +18°C° 0 mm 1 m/S 765 mmHg 78%
    04:00 +18°C° 0 mm 1 m/S 765 mmHg 77%
    05:00 +18°C° 0 mm 1 m/S 765 mmHg 76%
    06:00 +19°C° 0 mm 1 m/S 765 mmHg 75%
    07:00 +19°C° 0 mm 1 m/S 766 mmHg 73%
    08:00 +17°C° 0 mm 0 m/S 766 mmHg 72%
    09:00 +18°C° 0 mm 0 m/S 766 mmHg 71%
    10:00 +19°C° 0 mm 0 m/S 766 mmHg 69%
    11:00 +21°C° 0 mm 1 m/S 765 mmHg 67%
    12:00 +22°C° 0 mm 1 m/S 765 mmHg 65%
    13:00 +21°C° 0 mm 2 m/S 765 mmHg 64%
    14:00 +23°C° 0 mm 2 m/S 765 mmHg 63%
    15:00 +22°C° 0 mm 3 m/S 764 mmHg 61%
    16:00 +21°C° 0 mm 3 m/S 765 mmHg 67%
    17:00 +20°C° 0 mm 3 m/S 765 mmHg 73%
    18:00 +19°C° 0 mm 3 m/S 765 mmHg 79%
    19:00 +19°C° 0.2 mm 3 m/S 765 mmHg 82%
    20:00 +19°C° 0.2 mm 3 m/S 765 mmHg 84%
    21:00 +19°C° 0.2 mm 3 m/S 766 mmHg 86%
    22:00 +19°C° 0.4 mm 3 m/S 765 mmHg 87%
    23:00 +19°C° 0.4 mm 3 m/S 765 mmHg 87%

    26 Oktober, Samstag

    Zeit Temperatur Niederschläge Wind Luftdruck Luftfeuchtigkeit
    00:00 +19°C° 0.4 mm 3 m/S 765 mmHg 87%
    01:00 +19°C° 0.2 mm 3 m/S 765 mmHg 88%
    02:00 +18°C° 0.2 mm 2 m/S 765 mmHg 88%
    03:00 +18°C° 0.2 mm 2 m/S 765 mmHg 89%
    04:00 +18°C° 0.1 mm 3 m/S 765 mmHg 88%
    05:00 +18°C° 0.1 mm 3 m/S 765 mmHg 87%
    06:00 +18°C° 0.1 mm 3 m/S 765 mmHg 86%
    07:00 +19°C° 0.1 mm 4 m/S 765 mmHg 80%
    08:00 +20°C° 0.1 mm 4 m/S 766 mmHg 74%
    09:00 +21°C° 0.1 mm 4 m/S 766 mmHg 68%
    10:00 +22°C° 0 mm 4 m/S 766 mmHg 62%
    11:00 +22°C° 0 mm 4 m/S 766 mmHg 55%
    12:00 +22°C° 0 mm 4 m/S 766 mmHg 48%
    13:00 +22°C° 0 mm 4 m/S 766 mmHg 48%
    14:00 +22°C° 0 mm 4 m/S 765 mmHg 47%
    15:00 +22°C° 0 mm 4 m/S 765 mmHg 47%
    16:00 +22°C° 0 mm 3 m/S 765 mmHg 51%
    17:00 +21°C° 0 mm 3 m/S 765 mmHg 55%
    18:00 +20°C° 0 mm 3 m/S 765 mmHg 59%
    19:00 +20°C° 0 mm 2 m/S 765 mmHg 60%
    20:00 +20°C° 0 mm 2 m/S 765 mmHg 62%
    21:00 +19°C° 0 mm 2 m/S 765 mmHg 63%
    22:00 +19°C° 0 mm 2 m/S 765 mmHg 64%
    23:00 +18°C° 0 mm 2 m/S 765 mmHg 66%

    27 Oktober, Sonntag

    Zeit Temperatur Niederschläge Wind Luftdruck Luftfeuchtigkeit
    00:00 +19°C° 0 mm 1 m/S 765 mmHg 67%
    01:00 +19°C° 0 mm 1 m/S 765 mmHg 68%
    02:00 +19°C° 0 mm 1 m/S 765 mmHg 68%
    03:00 +18°C° 0 mm 1 m/S 765 mmHg 68%
    04:00 +18°C° 0 mm 1 m/S 765 mmHg 68%
    05:00 +18°C° 0 mm 1 m/S 765 mmHg 68%
    06:00 +18°C° 0 mm 1 m/S 765 mmHg 68%
    07:00 +18°C° 0 mm 2 m/S 766 mmHg 65%
    08:00 +18°C° 0 mm 2 m/S 766 mmHg 61%
    09:00 +19°C° 0 mm 2 m/S 766 mmHg 58%
    10:00 +20°C° 0 mm 2 m/S 766 mmHg 53%
    11:00 +22°C° 0 mm 1 m/S 766 mmHg 49%
    12:00 +23°C° 0 mm 1 m/S 766 mmHg 44%
    13:00 +23°C° 0 mm 1 m/S 765 mmHg 42%
    14:00 +24°C° 0 mm 2 m/S 765 mmHg 40%
    15:00 +24°C° 0 mm 3 m/S 765 mmHg 38%
    16:00 +21°C° 0 mm 3 m/S 765 mmHg 42%
    17:00 +20°C° 0 mm 3 m/S 765 mmHg 47%
    18:00 +19°C° 0 mm 3 m/S 765 mmHg 52%
    19:00 +18°C° 0 mm 2 m/S 765 mmHg 56%
    20:00 +17°C° 0 mm 2 m/S 765 mmHg 60%
    21:00 +18°C° 0 mm 1 m/S 765 mmHg 64%
    22:00 +16°C° 0 mm 1 m/S 765 mmHg 66%
    23:00 +16°C° 0 mm 1 m/S 765 mmHg 68%
    Mehr zeigen